星链-37867(STARLINK-37867)

导读

STARLINK-37867(NORAD编号69661)是美国太空探索技术公司(SpaceX)星链(Starlink)低轨宽带互联网星座的组网卫星之一,采用V2 Mini平台,由猎鹰9号火箭发射入轨,运行于高度约550千米的近地轨道。该卫星主要承担全球低时延卫星宽带通信服务,为地面、海洋、航空等用户提供高速互联网接入,同时具备自主碰撞规避和任务末期主动离轨能力,符合国际空间碎片减缓规范,是SpaceX持续扩建全球覆盖卫星互联网网络的在轨组成单元,截至2026年6月处于正常在轨工作状态。

基本信息
目录编号:
69661
目录名称:
STARLINK-37867
国际标识:
2026-143N
轨道中心:
EARTH
卫星名称:
星链-37867
卫星全名:
星链-37867(STARLINK-37867)
卫星状态:
在轨 (已飞行82 天)
发射日期:
2026-06-21 UTC
国别 :
美国 (US)
星等 :
--
该卫星已列入 空间交会检测服务 Space Conjunction Data Service (SCDS) ,当前飞行风险评估等级: 无高风险
轨道信息
数据来源 国际轨道数据 AOE轨道数据
星历时间 2026-09-11T00:08:35+0800
15小时前
查看轨道信息
2026-09-04T23:00:00+0800
6天前
查看轨道信息
半长轴 6843.68km 6843.71km
偏心率 0.0000988 0.0001011
轨道倾角 97.283° 97.286°
近地点辐角 84.795° 108.324°
升交点赤经 296.963° 291.002°
平近点角 275.341° 8.355°
近地点 464.866km 464.881km
远地点 466.22km 466.265km
周期 93.906分钟 93.907分钟
每日圈数 15.334452 15.334351
详细信息
固有亮度:
5
最大亮度:
2.5
卫星平台:
Starlink V1.0
覆盖范围:
全球
运营商:
太空探索技术公司
运营商所在国:
美国
制造商(研发单位):
太空探索技术公司
制造商所在国:
美国
使用方式:
暂无
卫星简介
Starlink 计划是 SpaceX 推出的全球卫星互联网项目,通过发射低轨道卫星,为全球尤其是偏远地区提供高速、低延迟的互联网服务。自 2019 年起,Starlink 已部署数千颗卫星,旨在缩小全球数字鸿沟,推动互联网普及。该项目还为军事、航空等行业提供通信支持,带来广泛经济效益。
2D轨道图
3D轨道图
轨道高度分析图
轨道倾角分析图
轨道综合分析图
查看轨道综合分析图
交会数据列表
事件ID 空间交会对象 最接近时刻(TCA) 交会距离 交会风险概率(CRP) 交会风险指数(CRI) 操作
CDM_260912-173806-238006-966121
OBJECT D (62380)
2026-09-12T
17:38:50+0000
0.850 km
远距离
4.380094E-5 中风险 0.68
CDM_260912-181206-539206-966121
2026-09-12T
18:12:35+0000
1.934 km
极远距离
3.169817E-6 低风险 0.45
CDM_260913-072004-574706-966122
2026-09-13T
07:20:15+0000
1.864 km
极远距离
3.1162E-6 低风险 0.45
CDM_260912-234106-539206-966121
2026-09-12T
23:41:24+0000
2.022 km
极远距离
2.821224E-6 低风险 0.44
CDM_260912-224604-943306-966122
2026-09-12T
22:46:36+0000
2.385 km
极远距离
1.871993E-6 低风险 0.4
CDM_260912-220706-539206-966121
2026-09-12T
22:07:27+0000
2.866 km
极远距离
1.437192E-6 低风险 0.38
CDM_260912-062204-781906-966121
2026-09-12T
06:22:08+0000
2.853 km
极远距离
1.410311E-6 低风险 0.38
CDM_260911-110305-386706-966121
2026-09-11T
11:03:14+0000
2.924 km
极远距离
1.371458E-6 低风险 0.38
CDM_260911-095504-975006-966121
2026-09-11T
09:55:21+0000
2.709 km
极远距离
1.279623E-6 低风险 0.37
CDM_260912-064406-569506-966121
2026-09-12T
06:44:42+0000
2.880 km
极远距离
1.243264E-6 低风险 0.37
与全量物体交会距离演化趋势
与全量物体交会风险概率演化趋势